アトラス彗星

C/2015 X7 ( ATLAS )

English version
Home page
Updated on February 7, 2017

---------------------------------------------------------------------

・ プロフィール

発見日 2015年12月12日
発見光度 17.6等
発見者 Asteroid Terrestrial-impact Last Alert System (ATLAS) Team

・ 写真集

・ 軌道要素

Epoch 2016 July 31.0 TT = JDT 2457600.5
T 2016 July 30.23790 TT                                 MPCW
q   3.6845498            (2000.0)            P               Q
z  -0.0004874      Peri.  348.48630     -0.68040116     -0.49112722
 +/-0.0000019      Node   139.88383     +0.72137761     -0.57960970
e   1.0017959      Incl.   57.58101     +0.12910693     +0.65026660
From 176 observations 2015 Dec. 12-2016 Nov. 3, mean residual 0".5.

・ 光度変化

        m1 = 8.5 + 5 logΔ + 10.0 log r

---------------------------------------------------------------------

軌道要素はM.P.E.C. 2016-V116に掲載されたものです。
光度グラフはComet for Windowsで作成したものです。

---------------------------------------------------------------------

Copyright(C) Seiichi Yoshida (comet@aerith.net). All rights reserved.